TimeCET,TemperatureF,Dew PointF,Humidity,Sea Level PressureIn,VisibilityMPH,Wind Direction,Wind SpeedMPH,Gust SpeedMPH,PrecipitationIn,Events,Conditions,WindDirDegrees,DateUTC
12:20 AM,17.6,12.2,79,29.92,-9999.0,SSE,4.6,-,N/A,,Clear,150,2013-03-14 23:20:00
12:50 AM,17.6,12.2,79,29.92,-9999.0,SSE,4.6,-,N/A,,Clear,160,2013-03-14 23:50:00
1:00 AM,17,12,74,29.94,16,SSE,4.6,,,,Clear,160,2013-03-15 00:00:00
1:20 AM,15.8,12.2,86,29.92,-9999.0,South,4.6,-,N/A,,Clear,170,2013-03-15 00:20:00
1:50 AM,15.8,12.2,86,29.92,-9999.0,South,4.6,-,N/A,,Clear,180,2013-03-15 00:50:00
2:20 AM,15.8,12.2,86,29.92,-9999.0,South,4.6,-,N/A,,Clear,170,2013-03-15 01:20:00
2:50 AM,15.8,12.2,86,29.92,-9999.0,South,5.8,-,N/A,,Clear,170,2013-03-15 01:50:00
3:20 AM,15.8,12.2,86,29.89,-9999.0,SSE,5.8,-,N/A,,Clear,150,2013-03-15 02:20:00
3:50 AM,15.8,12.2,86,29.89,-9999.0,SSE,5.8,-,N/A,,Clear,150,2013-03-15 02:50:00
4:00 AM,15,12,81,29.93,16,SSE,4.6,,,,,160,2013-03-15 03:00:00
4:20 AM,14.0,12.2,93,29.89,-9999.0,SSE,5.8,-,N/A,,Clear,150,2013-03-15 03:20:00
4:50 AM,14.0,10.4,86,29.89,-9999.0,SSE,4.6,-,N/A,,Clear,150,2013-03-15 03:50:00
5:20 AM,14.0,12.2,93,29.89,-9999.0,SSE,4.6,-,N/A,,Clear,160,2013-03-15 04:20:00
5:50 AM,14.0,12.2,93,29.89,-9999.0,SSE,4.6,-,N/A,,Clear,150,2013-03-15 04:50:00
6:20 AM,14.0,12.2,93,29.89,-9999.0,SSE,5.8,-,N/A,,Clear,150,2013-03-15 05:20:00
6:50 AM,15.8,12.2,86,29.89,-9999.0,SSE,4.6,-,N/A,,Clear,150,2013-03-15 05:50:00
7:00 AM,15,12,82,29.93,16,SSE,4.6,,,,Clear,150,2013-03-15 06:00:00
7:20 AM,17.6,14.0,86,29.92,-9999.0,SSE,5.8,-,N/A,,Clear,150,2013-03-15 06:20:00
7:50 AM,21.2,15.8,80,29.92,-9999.0,SSE,3.5,-,N/A,,Clear,160,2013-03-15 06:50:00
8:20 AM,24.8,17.6,74,29.92,-9999.0,South,5.8,-,N/A,,Clear,170,2013-03-15 07:20:00
8:50 AM,28.4,19.4,69,29.92,-9999.0,South,8.1,-,N/A,,Clear,170,2013-03-15 07:50:00
9:20 AM,30.2,19.4,64,29.92,-9999.0,South,9.2,-,N/A,,Clear,170,2013-03-15 08:20:00
9:50 AM,32.0,19.4,60,29.92,-9999.0,South,10.4,-,N/A,,Clear,170,2013-03-15 08:50:00
10:00 AM,32,18,43,29.94,16,South,12.7,,,,Clear,180,2013-03-15 09:00:00
10:20 AM,32.0,19.4,60,29.92,-9999.0,South,11.5,-,N/A,,Clear,190,2013-03-15 09:20:00
10:50 AM,33.8,17.6,52,29.92,-9999.0,South,11.5,-,N/A,,Clear,180,2013-03-15 09:50:00
11:20 AM,33.8,17.6,52,29.92,-9999.0,South,12.7,-,N/A,,Clear,180,2013-03-15 10:20:00
11:51 AM,35.6,17.6,48,29.92,-9999.0,South,11.5,-,N/A,,Clear,190,2013-03-15 10:51:00
12:20 PM,35.6,15.8,44,29.92,-9999.0,South,11.5,-,N/A,,Clear,180,2013-03-15 11:20:00
12:50 PM,35.6,15.8,44,29.92,-9999.0,South,11.5,-,N/A,,Clear,180,2013-03-15 11:50:00
1:00 PM,36,16,31,29.93,16,South,11.5,,,,Clear,180,2013-03-15 12:00:00
1:20 PM,37.4,17.6,45,29.92,-9999.0,South,11.5,-,N/A,,Clear,190,2013-03-15 12:20:00
1:50 PM,37.4,17.6,45,29.89,-9999.0,South,11.5,-,N/A,,Clear,180,2013-03-15 12:50:00
2:20 PM,37.4,17.6,45,29.89,-9999.0,South,10.4,-,N/A,,Clear,190,2013-03-15 13:20:00
2:50 PM,37.4,17.6,45,29.89,-9999.0,South,12.7,-,N/A,,Clear,190,2013-03-15 13:50:00
3:20 PM,37.4,17.6,45,29.89,-9999.0,South,10.4,-,N/A,,Clear,180,2013-03-15 14:20:00
3:50 PM,37.4,17.6,45,29.89,-9999.0,South,9.2,-,N/A,,Clear,190,2013-03-15 14:50:00
4:00 PM,38,17,29,29.91,16,South,10.4,,,,Scattered Clouds,190,2013-03-15 15:00:00
4:20 PM,37.4,15.8,41,29.89,-9999.0,South,12.7,-,N/A,,Clear,190,2013-03-15 15:20:00
4:50 PM,35.6,17.6,48,29.89,-9999.0,South,9.2,-,N/A,,Clear,190,2013-03-15 15:50:00
5:20 PM,35.6,17.6,48,29.89,-9999.0,South,9.2,-,N/A,,Clear,190,2013-03-15 16:20:00
5:50 PM,35.6,17.6,48,29.89,-9999.0,South,6.9,-,N/A,,Clear,180,2013-03-15 16:50:00
6:20 PM,33.8,19.4,56,29.89,-9999.0,South,5.8,-,N/A,,Clear,170,2013-03-15 17:20:00
6:50 PM,33.8,19.4,56,29.89,-9999.0,SSE,8.1,-,N/A,,Clear,150,2013-03-15 17:50:00
7:00 PM,33,19,43,29.93,16,SSE,6.9,,,,Overcast,160,2013-03-15 18:00:00
7:20 PM,32.0,19.4,60,29.92,-9999.0,SSE,6.9,-,N/A,,Clear,160,2013-03-15 18:20:00
7:50 PM,30.2,19.4,64,29.92,-9999.0,SSE,6.9,-,N/A,,Clear,150,2013-03-15 18:50:00
8:20 PM,30.2,21.2,69,29.92,-9999.0,SSE,6.9,-,N/A,,Clear,150,2013-03-15 19:20:00
8:50 PM,30.2,21.2,69,29.92,-9999.0,SSE,6.9,-,N/A,,Clear,150,2013-03-15 19:50:00
9:20 PM,30.2,21.2,69,29.92,-9999.0,SSE,8.1,-,N/A,,Clear,150,2013-03-15 20:20:00
9:50 PM,30.2,21.2,69,29.92,-9999.0,SSE,9.2,-,N/A,,Clear,160,2013-03-15 20:50:00
10:00 PM,30,22,60,29.93,16,SSE,8.1,,,,Partly Cloudy,150,2013-03-15 21:00:00
10:20 PM,30.2,21.2,69,29.92,-9999.0,SSE,9.2,-,N/A,,Clear,160,2013-03-15 21:20:00
10:50 PM,30.2,21.2,69,29.89,-9999.0,SSE,9.2,-,N/A,,Clear,160,2013-03-15 21:50:00
11:20 PM,28.4,21.2,74,29.89,-9999.0,SSE,10.4,-,N/A,,Clear,150,2013-03-15 22:20:00
11:51 PM,28.4,21.2,74,29.89,-9999.0,SSE,10.4,-,N/A,,Clear,150,2013-03-15 22:51:00